Powrót do katalogu

COSMOS 2344 DEB

AktywnyUNKNOWN
NORAD 24843·DEBRIS·🇷🇺 Russia

Wystrzelony Jun 6, 1997 z Baikonur Cosmodrome

Loading…

Następne Przeloty (najbliższe 24 godziny)

TLE

ŚwieżeSource: Space-Track

Epoka: Sep 14, 2026, 07:58 UTC

1 24843U 97028G   26257.33195587 -.00000115  00000-0 -73045-3 0  9991
2 24843  63.3209  21.2860 1077785  46.9865 344.3225 11.10065567184354

Śledź COSMOS 2344 DEB w czasie rzeczywistym z AllMySat

Download on the App Store